Location: Aizelles
(49.4888°N, 3.8114°E)
Time: 01:03:24
(UTC+00:00)

Daily predictions for brighter satellites

Satellite Brightness Start Highest point End
(mag) Time Altitude Azimuth Time Altitude Azimuth Time Altitude Azimuth
USA 234 4.5 03:06:45 10° ENE 03:10:26 35° NE 03:10:26 35° NE
USA 59 Rocket 3.0 03:34:44 12° E 03:34:44 12° E 03:35:06 10° ESE
NOSS 3-1 (C) 4.5 03:34:05 48° NNE 03:34:22 48° NE 03:42:23 10° ESE
ACS3 Solar Sail 4.2 03:40:21 10° N 03:40:27 11° N 03:40:27 11° N
SL-16 R/B 3.9 03:46:48 24° NNE 03:47:49 26° NE 03:52:30 10° E
Cosmos 2082 Rocket 3.6 03:49:32 28° SE 03:51:19 34° ESE 03:56:20 10° NE
COSMOS 2455 3.3 03:58:09 59° ENE 03:58:09 59° ENE 04:03:37 10° SE
ATLAS 3B R/B 4.2 03:59:03 28° N 03:59:54 28° N 04:06:30 10° ENE
NOSS 3-4 (A) 4.4 04:02:31 35° NNE 04:02:31 35° NNE 04:06:11 10° NE
NOSS 3-4 (C) 4.4 04:02:40 35° NNE 04:02:40 35° NNE 04:06:21 10° NE
Cosmos 1898 Rocket 4.4 04:02:28 46° ENE 04:02:28 46° ENE 04:07:07 10° SE
Cosmos 1980 Rocket 3.4 04:14:14 31° SSE 04:14:14 31° SSE 04:17:05 10° SSE
Cosmos 2098 Rocket 4.5 04:15:58 43° SSE 04:15:58 43° SSE 04:19:47 10° S
Cosmos 2369 3.8 04:16:15 73° E 04:16:15 73° E 04:21:40 10° SE
COSMO-SKYMED 1 4.1 04:18:23 10° SE 04:22:01 31° ENE 04:22:50 28° NE
Aureole 1 Rocket 4.2 04:20:44 53° NNW 04:22:40 89° NE 04:30:12 10° SSE
SKYMED 2 4.5 04:20:02 10° SE 04:24:01 47° ENE 04:24:01 47° ENE
Cosmos 2180 Rocket 4.4 04:23:51 46° N 04:25:57 90° NE 04:32:17 10° S
Cosmos 1937 Rocket 4.0 04:25:55 48° NNE 04:26:49 54° ENE 04:31:50 10° SE
Cosmos 372 Rocket 4.1 04:33:38 64° SSE 04:33:38 64° SSE 04:37:54 10° SSE
Celestis-02/Orion 38 4.4 04:30:28 10° NNE 04:35:18 80° N 04:35:18 80° N
Cosmos 2333 Rocket 3.4 04:33:56 23° N 04:36:58 40° NE 04:42:21 10° ESE
NOSS 3-1 (A) 4.4 04:37:46 32° NNW 04:41:01 56° NE 04:49:19 10° ESE
Cosmos 1606 Rocket 3.6 04:43:12 75° E 04:43:12 75° E 04:47:29 10° SSE
Cosmos 2360 Rocket 3.7 04:40:11 18° N 04:43:38 32° NE 04:48:38 10° ESE
Cosmos 2142 Rocket 4.4 04:47:06 50° NW 04:48:23 61° W 04:54:28 10° S
Cosmos 540 Rocket 4.4 04:56:48 31° NNW 04:56:48 31° NNW 04:59:55 10° NNE
USA 234 3.8 04:49:25 10° ENE 04:55:37 46° N 04:57:47 35° NW
Helios 1A Rocket 3.1 04:52:53 10° SSE 04:55:47 52° ESE 04:55:47 52° ESE
SeaSat 1 4.1 04:56:23 10° N 04:58:20 19° N 04:58:20 19° N
Cosmos 2219 Rocket 3.8 04:58:08 13° N 05:02:26 29° NE 05:07:17 10° ESE
SL-4 R/B 2.4 05:03:15 42° ENE 05:03:15 42° ENE 05:05:37 10° E
ATLAS 5 CENTAUR R/B 3.4 05:05:56 12° NNE 05:05:56 12° NNE 05:06:27 10° NNE
Cosmos 2322 Rocket 3.1 05:01:43 18° NNW 05:05:50 47° NE 05:11:18 10° SE
Cosmos 1726 Rocket 3.3 05:08:07 42° NNW 05:09:31 80° W 05:13:45 10° S
Meteor 2-3 Rocket 3.9 05:05:27 10° S 05:11:11 77° E 05:16:53 10° NNE
CZ-4 R/B 3.6 05:10:28 10° NNE 05:15:09 84° WNW 05:19:46 10° SSW
Cosmos 489 Rocket 4.4 05:08:56 10° SSW 05:15:15 88° WNW 05:21:34 10° NNE
Nadezhda 4 Rocket 3.9 05:09:57 10° SSW 05:16:13 68° WNW 05:22:29 10° N
Cosmos 1428 Rocket 4.4 05:11:05 10° SSW 05:17:18 78° W 05:23:38 10° N
NOSS 2-1 (D) 4.0 05:17:47 38° SW 05:17:47 38° SW 05:21:49 10° SSE
Cosmos 2237 4.3 05:15:45 36° NW 05:17:51 57° WSW 05:23:24 10° S
CZ-2C R/B 4.2 05:14:45 10° N 05:16:11 17° NNW 05:16:11 17° NNW
USA 59 Rocket 0.7 05:20:26 34° SW 05:20:26 34° SW 05:24:28 10° S
Cosmos 841 Rocket 3.4 05:18:00 10° SSW 05:23:13 73° WNW 05:28:30 10° NNE
COSMOS 2406 3.2 05:18:04 10° SSW 05:23:45 89° ESE 05:29:28 10° NNE
NOSS 2-1 (E) 3.7 05:25:12 40° WSW 05:25:24 41° SW 05:29:42 10° SSE
NOSS 3-1 (C) 4.1 05:21:26 28° NW 05:25:32 62° SW 05:34:13 10° SSE
Cosmos 1833 Rocket 4.2 05:28:01 19° NNW 05:28:01 19° NNW 05:31:24 10° N
Cosmos 1892 Rocket 3.4 05:25:46 10° SSW 05:30:07 79° W 05:34:34 10° N
Cosmos 2195 Rocket 4.4 05:24:23 10° SSW 05:30:38 77° W 05:37:00 10° N
SL-16 R/B 2.1 05:28:40 22° NNW 05:32:30 75° WSW 05:38:08 10° SSE
Cosmos 2082 Rocket 2.4 05:31:29 19° WSW 05:35:14 47° NW 05:40:40 10° NNE
IRS-1D 3.7 05:37:29 10° N 05:42:14 46° WNW 05:47:01 10° SW
COSMOS 2455 3.7 05:41:19 25° WNW 05:43:14 30° WSW 05:48:21 10° S
Cosmos 1898 Rocket 4.3 05:42:42 26° WNW 05:43:49 29° W 05:48:16 10° SSW
Meteor 2-20 4.4 05:39:15 10° NNW 05:45:17 61° W 05:51:14 10° S
Orbus 7S? 2.8 05:47:32 34° NNW 05:48:25 57° NNE 05:51:07 10° ESE
Cosmos 405 Rocket 3.7 05:45:43 10° SSE 05:48:47 40° E 05:51:54 10° NNE
ATLAS 3B R/B 3.9 05:46:18 13° NW 05:52:50 41° NNE 06:00:00 10° E
Cosmos-2242 2.9 05:49:41 10° NNW 05:53:53 61° W 05:58:02 10° S
Cosmos 1980 Rocket 4.1 05:56:02 11° WSW 05:56:02 11° WSW 05:56:37 10° WSW
Cosmos 2278 3.8 05:51:02 16° NW 05:55:34 58° WSW 06:01:04 10° S
COSMO-SKYMED 1 3.3 05:53:43 10° SSW 05:57:19 29° W 05:59:09 21° NW
Cosmos 1437 Rocket 4.4 05:55:21 10° N 05:58:25 28° ENE 06:01:27 10° SE
Cosmos 1484 Rocket 2.4 05:57:35 10° N 06:00:58 58° WNW 06:04:17 10° SSW
Cosmos 2058 Rocket 3.3 05:56:43 10° NNW 06:01:01 48° W 06:05:15 10° SSW
Meteor 2-2 Rocket 4.3 05:58:44 10° NNW 06:04:16 56° W 06:09:53 10° S
Okean 1 3.3 06:03:40 12° NNW 06:06:47 45° W 06:10:11 10° SSW
Meteor 2-20 Rocket 4.4 06:01:49 10° NNW 06:07:28 56° W 06:13:01 10° S
CORIOLIS 4.5 06:06:20 10° NNE 06:11:44 72° ESE 06:17:06 10° S
ARIANE 5 R/B 3.4 06:07:56 10° NNE 06:13:03 54° E 06:18:10 10° S
Cosmos 2285 Rocket 4.0 06:07:10 10° NNW 06:13:34 79° WSW 06:19:58 10° SSE
ATLAS 2AS CENTAUR R/B 4.3 06:08:50 10° S 06:15:18 40° ESE 06:21:39 10° NE
SL-08 ROCKET BODY 4.3 06:10:45 10° S 06:16:37 89° W 06:22:30 10° N
SL-08 R/B 4.3 06:13:51 10° SE 06:18:12 45° ENE 06:22:40 10° N
IRIDIUM 104 4.3 06:13:15 10° S 06:18:27 71° W 06:23:41 10° N
Cosmos 2333 Rocket 2.7 06:15:58 10° NW 06:21:20 44° WSW 06:26:43 10° S
SAR-Lupe-4 3.9 06:19:48 10° NNE 06:23:21 68° ESE 06:26:53 10° S
SMAP 3.0 06:19:38 10° NNE 06:24:19 87° WNW 06:28:59 10° SSW
IRIDIUM 114 4.4 06:22:28 10° SSW 06:27:37 60° W 06:32:48 10° N
Cosmos 2360 Rocket 2.4 06:22:25 10° NW 06:27:55 55° WSW 06:33:21 10° S
Helios 1A Rocket 4.5 06:28:03 10° WSW 06:29:06 11° W 06:29:20 11° W
Landsat 7 3.8 06:25:35 10° NNE 06:30:17 88° ESE 06:34:57 10° SSW
Meteor 1-19 Rocket 4.5 06:24:31 10° N 06:30:18 81° ENE 06:36:13 10° SSE
SAR-Lupe-1 4.4 06:27:34 10° NNE 06:31:11 72° ESE 06:34:46 10° S
NOSS 3-1 (A) 4.4 06:25:10 10° NW 06:32:05 52° WSW 06:40:36 10° SSE
CBERS-1 4.1 06:27:59 10° N 06:32:57 52° WNW 06:37:52 10° SW
IGS 5A 3.9 06:30:08 10° N 06:33:47 35° WNW 06:37:26 10° SW
Cosmos 1814 Rocket 4.0 06:29:13 10° SSW 06:34:25 70° WNW 06:39:44 10° NNE
BREEZE-M DEB (TANK) 3.1 06:34:38 10° W 06:36:15 28° SSW 06:38:38 10° SE
Cosmos 2237 Rocket 3.9 06:31:58 10° NNW 06:36:36 25° NE 06:41:13 10° E
USA 234 3.5 06:31:40 10° E 06:38:07 64° NNE 06:44:36 10° WNW
SL-4 R/B 1.5 06:36:58 11° WNW 06:40:07 68° SSW 06:43:15 10° ESE
Cosmos 1758 Rocket 3.7 06:36:23 10° SSW 06:40:43 53° WNW 06:45:03 10° N
Cosmos 1733 2.8 06:40:03 10° SW 06:41:33 20° WNW 06:43:03 10° NNW
Cosmos 1743 2.3 06:38:34 10° SSW 06:41:46 57° WNW 06:45:00 10° N
IRS-1C 4.2 06:36:53 10° NNE 06:42:16 88° ESE 06:47:35 10° SSW
Thor Agena Rocket 3.6 06:40:29 10° N 06:45:28 58° WNW 06:50:23 10° SSW
BREEZE-M DEB (TANK) 3.3 06:43:10 10° W 06:46:04 89° SSW 06:54:27 10° E
Cosmos 2219 Rocket 2.3 06:41:12 10° NNW 06:46:49 64° WSW 06:52:22 10° SSE
Cosmos 192 4.4 06:42:13 10° NNW 06:47:08 71° WSW 06:52:00 10° SSE
Cosmos 2322 Rocket 3.0 06:44:37 10° NW 06:49:43 35° WSW 06:54:46 10° S
S3M 4.0 06:44:12 10° NNW 06:50:25 77° W 06:56:32 10° S
USA 229 4.3 06:48:17 10° NW 06:55:33 68° NE 07:03:36 10° SE
USA 229 DEB 4.3 06:48:23 10° NW 06:55:38 68° NE 07:03:41 10° SE
Cosmos 2322 4.0 06:50:00 10° NNW 06:55:40 69° ENE 07:01:19 10° SE
